Torna al catalogo

STARLINK-11232

AttivoComunicazioniVLEO
NORAD 60401·PAYLOAD·🇺🇸 United States

Lanciato Aug 10, 2024 da Cape Canaveral Space Force Station

Loading…

Prossimi Passaggi (prossime 24 ore)

TLE

AggiornatoSource: CelesTrak SupGP

Epoca: Sep 14, 2026, 20:54 UTC

1 60401C 24141D   26257.87131944  .00058738  00000+0  48387-3 0  2572
2 60401  53.1568 233.3939 0001171  96.0345 121.7788 15.69678997    12

Traccia STARLINK-11232 in tempo reale con AllMySat

Download on the App Store